Location: Home
(42.5358°N, 72.7383°W)
Time: 09:37:52
(UTC-05:00)

S-56A Canister/Altair - Pass Details

Date: 05 December 2021
Orbit: 634 x 2499 km, 38.9° (Epoch: 22 January)

Event Time Altitude Azimuth Distance (km) Brightness Sun altitude
Rises 01:33:08 0° 262° (W) 4,815 - -59.3°
Reaches altitude 10° 01:36:50 10° 261° (W) 3,523 - -58.7°
Maximum altitude 01:45:07 66° 181° (S) 1,116 - -57.4°
Drops below altitude 10° 01:50:39 10° 100° (E) 2,398 - -56.5°
Sets 01:52:46 0° 97° (E) 3,191 - -56.1°
